{"data":{"norad_id":59728,"epoch":"2026-05-24T17:10:55.858656Z","epoch_age_seconds":99907,"freshness":"FRESH","line1":"1 59728U 24089A   26144.71592429  .00000472  00000+0  58705-4 0  9991","line2":"2 59728  97.7767 146.9804 0001843 277.1784  82.9222 14.86999609110356","mean_motion":14.86999609,"eccentricity":0.0001843,"inclination_deg":97.7767,"raan_deg":146.9804,"arg_perigee_deg":277.1784,"mean_anomaly_deg":82.9222,"bstar":5.8705e-5,"rev_number":11035,"period_min":96.839299168908,"perigee_km":606.02906598481,"apogee_km":608.6039041394,"semimajor_km":6985.4534850621,"source":"CELESTRAK","updated_at":"2026-05-25T13:38:01.597705Z"}}